Location: Aulagny
(45.1643°N, 4.3096°E)
Time: 18:34:07
(UTC+00:00)

Cosmos 1777 Rocket - Pass Details

Date: 21 October 2019
Orbit: 759 x 775 km, 74.0° (Epoch: 18 November)

Event Time Altitude Azimuth Distance (km) Brightness Sun altitude
Rises 17:56:49 0° 336° (NNW) 3,235 7.5 -12.8°
Reaches altitude 10° 17:59:12 10° 334° (NNW) 2,303 6.8 -13.2°
Maximum altitude 18:04:22 67° 253° (WSW) 827 4.4 -14.1°
Drops below altitude 10° 18:09:30 10° 171° (S) 2,283 6.4 -15.0°
Sets 18:11:52 0° 169° (S) 3,204 7.1 -15.4°
